Location: Unspecified
(51.0000°N, 12.0000°E)
Time: 05:58:22
(UTC+01:00)

ISS - Visible Passes

Search period start: 23 February 2018 00:00
Search period end: 05 March 2018 00:00
Orbit: 402 x 407 km, 51.6° (Epoch: 23 February)

Date Brightness Start Highest point End Pass type
(mag) Time Alt. Az. Time Alt. Az. Time Alt. Az.
26 Feb -0.8 06:25:40 10° S 06:27:29 14° SE 06:29:19 10° ESE visible
28 Feb -1.7 06:16:19 10° SSW 06:19:05 25° SSE 06:21:52 10° E visible
01 Mar -1.2 05:24:49 10° S 05:26:59 17° SE 05:29:10 10° E visible
02 Mar -0.9 04:34:23 10° SE 04:34:56 10° SE 04:35:29 10° SE visible
02 Mar -2.8 06:07:38 10° SW 06:10:45 43° SSE 06:13:53 10° E visible
03 Mar -2.2 05:16:44 17° SSW 05:18:32 29° SSE 05:21:26 10° E visible
04 Mar -1.6 04:26:36 19° SE 04:26:36 19° SE 04:28:48 10° E visible
04 Mar -3.6 05:59:15 10° WSW 06:02:28 68° SSE 06:05:43 10° ENE visible
